Regional Weather Roundup
Issued by NWS

Home | Current Version | Previous Version | Graphics & Text | Print | Product List | Glossary On
Versions: 1 2 3 4 5 6 7 8 9 10 11 12 13 14 15 16 17 18 19 20 21 22 23 24 25 26 27 28 29 30 31 32 33 34 35 36 37 38 39 40 41 42 43 44 45 46 47 48 49 50
000
ASUS43 KBIS 011610
RWRND

NORTH DAKOTA REGIONAL WEATHER ROUNDUP
NATIONAL WEATHER SERVICE BISMARCK ND
1100 AM CDT SUN MAY 01 2016

NOTE: "FAIR" INDICATES FEW OR NO CLOUDS BELOW 12,000 FEET WITH NO
SIGNIFICANT WEATHER AND/OR OBSTRUCTIONS TO VISIBILITY.


NDZ001>003-009>011-017-011700-
NORTHWEST NORTH DAKOTA

CITY           SKY/WX    TMP DP  RH WIND       PRES   REMARKS
WILLISTON      SUNNY     54  30  40 CALM      30.34F
MINOT          SUNNY     61  28  28 W3        30.32F
MINOT AFB      SUNNY     55  29  37 VRB1      30.31F
$$

NDZ018>021-031>035-040>046-011700-
SOUTHWEST NORTH DAKOTA

CITY           SKY/WX    TMP DP  RH WIND       PRES   REMARKS
BISMARCK       SUNNY     55  31  39 VRB3      30.33F
DICKINSON      SUNNY     53  29  39 VRB5      30.31F
GARRISON         N/A     55  30  38 VRB3      30.32F
HETTINGER ARPT SUNNY     54  28  36 N8        30.33F
$$

NDZ004>008-012>016-024-026-027-054-011700-
NORTHEAST NORTH DAKOTA

CITY           SKY/WX    TMP DP  RH WIND       PRES   REMARKS
GRAND FORKS    SUNNY     58  30  34 NE9       30.29F
GRND FRKS AFB  SUNNY     57  27  32 VRB6      30.29F
DEVILS LAKE    SUNNY     55  26  32 VRB3      30.31F
$$

NDZ022-023-025-028>030-036>039-047>053-011700-
SOUTHEAST NORTH DAKOTA

CITY           SKY/WX    TMP DP  RH WIND       PRES   REMARKS
FARGO          SUNNY     55  29  36 NW8       30.28F
JAMESTOWN      SUNNY     54  30  40 NE6       30.29F
$$





USA.gov is the U.S. government's official web portal to all federal, state and local government web resources and services.